Flag for Colombia Weather past 2 weeks in Cúcuta, Colombia

Now
82 °F

Partly sunny.


Feels Like: 85 °F
Forecast: N/A
Wind: N/A

Location: San Antonio Del Tachira Airport

Current Time: Apr 19, 2015 at 5:12:39 PM

Latest Report: Apr 19, 2015 at 4:00 PM


Visibility: N/A

Pressure: 29.86 "Hg

Humidity: 58%

Dew point: 66 °F

Location of CúcutaLocation

Historic Weather in Cúcuta — Graph

°F

Cúcuta temperature yesterday

Maximum temperature yesterday: 86 °F (at 1:00 PM)
Minimum temperature yesterday: 73 °F (at 5:00 AM)
Average temperature yesterday: 80 °F

Past Weeks' High & Low Weather Summary

 TemperatureHumidityPressure
High93 °F (Apr 14, 2:00 PM)100% (Apr 5, 6:00 AM)30.04 "Hg (Apr 5, 6:00 AM)
Low72 °F (Apr 6, 5:00 AM)32% (Apr 14, 3:00 PM)29.80 "Hg (Apr 10, 3:00 PM)
Average80 °F72%29.92 "Hg
* Reported Apr 4 3:00 PM — Apr 19 3:00 PM, Cúcuta, Weather by CustomWeather, © 2015

Note: Actual official high and low records may vary slightly from our data, if they occured in-between our weather recording intervals... More about our weather records

Advertising

Cúcuta weather history for previous 24 hours

 ConditionsComfort  
Time TempWeatherWind HumidityBarometerVisibility
3:00 PM
Sun, Apr 19
82 °FOvercast.N/A62%29.86 "HgN/A
2:00 PM79 °FOvercast.N/A74%29.89 "HgN/A
1:00 PM73 °FDrizzle. Overcast.N/A83%29.92 "HgN/A
12:00 PM79 °FDrizzle. Overcast.N/A84%29.98 "HgN/A
11:00 AM81 °FPartly sunny.N/A74%29.98 "HgN/A
10:00 AM79 °FDrizzle. Partly sunny.N/A79%29.98 "Hg5 mi
9:00 AM82 °FPartly sunny.N/A55%29.98 "HgN/A
8:00 AM81 °FPartly sunny.N/A58%29.95 "HgN/A
7:00 AM77 °FPartly sunny.N/A69%29.92 "HgN/A
6:00 AM81 °FPartly sunny.N/A51%29.95 "HgN/A
5:00 AM73 °FPartly sunny.N/A94%29.95 "HgN/A
1:00 AM75 °FPassing clouds.N/A78%29.92 "HgN/A
10:00 PM
Sat, Apr 18
79 °FPassing clouds.N/A65%29.95 "HgN/A
9:00 PM79 °FPassing clouds.N/A70%29.95 "HgN/A
8:00 PM79 °FPassing clouds.N/A79%29.92 "HgN/A
7:00 PM79 °FPassing clouds.N/A74%29.92 "HgN/A
6:00 PM81 °FPassing clouds.N/A66%29.89 "HgN/A
5:00 PM82 °FPassing clouds.N/A58%29.86 "HgN/A
Weather by CustomWeather, © 2015

See weather overviewHow to use our weather pages